Regional Weather Roundup
Issued by NWS Green Bay, WI

Home | Current Version | Previous Version | Graphics & Text | Print | Product List | Glossary Off
Versions: 1 2 3 4 5 6 7 8 9 10 11 12 13 14 15 16 17 18 19 20 21 22 23 24 25 26 27 28 29 30 31 32 33 34 35 36 37 38 39 40 41 42 43 44 45 46 47 48 49 50

000
ASUS43 KGRB 241800
RWRGRB

NORTH-CENTRAL AND NORTHEAST WISCONSIN REGIONAL WEATHER ROUNDUP
NATIONAL WEATHER SERVICE GREEN BAY WI
100 PM CDT TUE MAY 24 2016

WIZ005-009-010>012-018-019-241900-
NORTH CENTRAL WISCONSIN

CITY           SKY/WX    TMP DP  RH WIND       PRES   REMARKS
IRONWOOD       NOT AVBL
MANITOWISH WTR NOT AVBL
ARBOR VITAE    NOT AVBL
EAGLE RIVER    NOT AVBL
LAND O LAKES   NOT AVBL
RHINELANDER    LGT RAIN  67  62  84 W3        29.94R
PHILLIPS       NOT AVBL
ANTIGO         NOT AVBL
TOMAHAWK       NOT AVBL
MERRILL        NOT AVBL
$$

WIZ013-073-241900-
NORTHEAST WISCONSIN

CITY           SKY/WX    TMP DP  RH WIND       PRES   REMARKS
IRON MOUNTAIN  LGT RAIN  72  62  71 SE7       29.89S
MARINETTE      CLOUDY    75  54  46 SW8       29.90S
$$

WIZ017-030-035>037-045-241900-
CENTRAL WISCONSIN

CITY           SKY/WX    TMP DP  RH WIND       PRES   REMARKS
MEDFORD        NOT AVBL
WAUSAU         CLOUDY    74  58  57 SW8       29.91R
MOSINEE        PTSUNNY   72  61  68 S7        29.93R
MARSHFIELD     CLOUDY    77  61  57 SW10      29.92R
WISC RAPIDS    CLOUDY    75  57  53 SW13      29.94R
STEVENS POINT  NOT AVBL
WAUPACA        NOT AVBL
SHAWANO        NOT AVBL
CLINTONVILLE   NOT AVBL
WAUTOMA        CLOUDY    77  59  53 SW9       29.93R
$$

WIZ038-039-048-051-241900-
FOX VALLEY

CITY           SKY/WX    TMP DP  RH WIND       PRES   REMARKS
NWS GREEN BAY  CLOUDY    78  57  48 SW9       29.91R
APPLETON       PTSUNNY   75  55  50 SW9       29.91R
OSHKOSH        CLOUDY    79  58  48 S13G20    29.92R
FOND DU LAC    CLOUDY    78  61  55 SW9       29.93R
$$

WIZ022-050-052-241900-
EAST CENTRAL WISCONSIN

CITY           SKY/WX    TMP DP  RH WIND       PRES   REMARKS
EPHRAIM        NOT AVBL
STURGEON BAY   NOT AVBL
MANITOWOC      NOT AVBL
SHEBOYGAN      PTSUNNY   82  58  43 SW13      29.92S
$$

LMZ563-521-522-541>543-241900-
LAKESHORE

STATION/POSITION TIME  TEMP    WIND        PRES    VSBY  WAVE
                       AIR SEA DIR/SP/G                  HT/PER
                 (UTC) (F)     (DEG/KT/KT) (MB)    (MI)  (FT/S)
SHEBOYGAN LKSHOR 1700   58     170/ 17/ 18 1013.8F
KEWAUNEE LKSHORE 1700   56     180/ 11/ 13 1012.3F
ALGOMA MARINA    1716          210/  8/ 10   N/A
NORTHPORT PIER   1700   55     140/  7/ 10 1012.9F
N MID LAKE BUOY  1650   47 44  190/  8/ 10 1013.5S         2/ 4
SISTER BAY LKSHO 1719   67      20/  7/  7   N/A
CHAMBERS ISLAND  1700   75     280/  1/  5 1012.5F
MENOMINEE LKSHOR 1700   67     170/  5/  6 1011.4F
$$




USA.gov is the U.S. government's official web portal to all federal, state and local government web resources and services.